Location: ??????
(41.3164°N, 22.6615°E)
Time: 20:05:35
(UTC+00:00)

CZ-2C R/B - Visible Passes

Search period start: 03 October 2023 00:00
Search period end: 13 October 2023 00:00
Orbit: 784 x 869 km, 98.3° (Epoch: 02 October)

Date Brightness Start Highest point End Pass type
(mag) Time Alt. Az. Time Alt. Az. Time Alt. Az.
03 Oct 5.1 00:56:32 14° N 00:56:32 14° N 00:57:13 10° N visible
04 Oct 5.3 00:37:37 12° N 00:37:37 12° N 00:38:04 10° N visible
05 Oct 5.5 00:18:42 10° NNE 00:18:42 10° NNE 00:18:45 10° NNE visible
